When you browse on this site, cookies collect data to enhance your experience and personalize the content and advertising you see.
Visit our Privacy Policy to learn more. By continuing to use the site, you agree to this use of cookies and data.
  • In Belgien
  • Länderverzeichnis
  • Für 7 Tage
  • Wassertemperatur
  • Wetterkarte
  • Widgets
  • user-avatar
    Anmelden

    Stündliche Wetter Bafoussam

    Heute, 5 Juni, Freitag

    Zeit Temperatur Niederschläge Wind Luftdruck Luftfeuchtigkeit
    00:00 +17°C° 0.4 mm 0 m/S 645 mmHg 94%
    01:00 +19°C° 0 mm 1 m/S 645 mmHg 93%
    02:00 +19°C° 0 mm 1 m/S 645 mmHg 93%
    03:00 +17°C° 0 mm 0 m/S 644 mmHg 93%
    04:00 +17°C° 0 mm 0 m/S 644 mmHg 92%
    05:00 +17°C° 0 mm 0 m/S 645 mmHg 92%
    06:00 +17°C° 0 mm 0 m/S 645 mmHg 92%
    07:00 +17°C° 0 mm 0 m/S 646 mmHg 93%
    08:00 +19°C° 0.4 mm 0 m/S 646 mmHg 89%
    09:00 +21°C° 0.4 mm 0 m/S 647 mmHg 85%
    10:00 +25°C° 0.4 mm 1 m/S 647 mmHg 81%
    11:00 +25°C° 1 mm 1 m/S 647 mmHg 79%
    12:00 +25°C° 1 mm 1 m/S 647 mmHg 78%
    13:00 +26°C° 1 mm 1 m/S 646 mmHg 76%
    14:00 +25°C° 1.1 mm 1 m/S 646 mmHg 79%
    15:00 +25°C° 1.1 mm 1 m/S 645 mmHg 82%
    16:00 +24°C° 1.1 mm 1 m/S 644 mmHg 85%
    17:00 +23°C° 0.9 mm 1 m/S 644 mmHg 87%
    18:00 +21°C° 0.9 mm 1 m/S 645 mmHg 89%
    19:00 +18°C° 0.9 mm 0 m/S 645 mmHg 92%
    20:00 +17°C° 0.3 mm 0 m/S 645 mmHg 92%
    21:00 +19°C° 0.3 mm 1 m/S 645 mmHg 93%
    22:00 +18°C° 0.3 mm 1 m/S 645 mmHg 94%
    23:00 +18°C° 0 mm 1 m/S 645 mmHg 94%

    Morgen, 6 Juni, Samstag

    Zeit Temperatur Niederschläge Wind Luftdruck Luftfeuchtigkeit
    00:00 +18°C° 0 mm 1 m/S 645 mmHg 95%
    01:00 +18°C° 0 mm 1 m/S 645 mmHg 95%
    02:00 +18°C° 0.1 mm 1 m/S 645 mmHg 95%
    03:00 +18°C° 0.1 mm 1 m/S 645 mmHg 95%
    04:00 +16°C° 0.1 mm 0 m/S 645 mmHg 94%
    05:00 +17°C° 0.4 mm 0 m/S 645 mmHg 94%
    06:00 +17°C° 0.4 mm 0 m/S 645 mmHg 94%
    07:00 +17°C° 0.4 mm 0 m/S 646 mmHg 93%
    08:00 +19°C° 0.4 mm 0 m/S 647 mmHg 89%
    09:00 +23°C° 0.4 mm 1 m/S 647 mmHg 85%
    10:00 +25°C° 0.4 mm 1 m/S 648 mmHg 82%
    11:00 +25°C° 1.2 mm 1 m/S 648 mmHg 81%
    12:00 +25°C° 1.2 mm 1 m/S 647 mmHg 80%
    13:00 +25°C° 1.2 mm 1 m/S 647 mmHg 80%
    14:00 +23°C° 1.1 mm 1 m/S 646 mmHg 85%
    15:00 +22°C° 1.1 mm 1 m/S 645 mmHg 89%
    16:00 +20°C° 1.1 mm 1 m/S 644 mmHg 94%
    17:00 +20°C° 0.1 mm 1 m/S 644 mmHg 94%
    18:00 +19°C° 0.1 mm 1 m/S 644 mmHg 93%
    19:00 +19°C° 0.1 mm 1 m/S 644 mmHg 93%
    20:00 +19°C° 0 mm 1 m/S 644 mmHg 93%
    21:00 +18°C° 0 mm 1 m/S 644 mmHg 93%
    22:00 +18°C° 0 mm 1 m/S 645 mmHg 93%
    23:00 +18°C° 0 mm 1 m/S 645 mmHg 93%

    übermorgen, 7 Juni, Sonntag

    Zeit Temperatur Niederschläge Wind Luftdruck Luftfeuchtigkeit
    00:00 +16°C° 0 mm 0 m/S 645 mmHg 93%
    01:00 +16°C° 0 mm 0 m/S 644 mmHg 93%
    02:00 +15°C° 0 mm 0 m/S 644 mmHg 92%
    03:00 +15°C° 0 mm 0 m/S 644 mmHg 92%
    04:00 +15°C° 0 mm 0 m/S 644 mmHg 91%
    05:00 +16°C° 0 mm 0 m/S 644 mmHg 91%
    06:00 +16°C° 0 mm 0 m/S 645 mmHg 90%
    07:00 +17°C° 0 mm 0 m/S 645 mmHg 89%
    08:00 +19°C° 0 mm 0 m/S 646 mmHg 82%
    09:00 +23°C° 0 mm 1 m/S 647 mmHg 76%
    10:00 +25°C° 0 mm 1 m/S 647 mmHg 69%
    11:00 +26°C° 0.5 mm 1 m/S 647 mmHg 70%
    12:00 +26°C° 0.5 mm 1 m/S 647 mmHg 71%
    13:00 +26°C° 0.5 mm 1 m/S 646 mmHg 72%
    14:00 +26°C° 0.7 mm 1 m/S 646 mmHg 74%
    15:00 +26°C° 0.7 mm 1 m/S 645 mmHg 77%
    16:00 +25°C° 0.7 mm 1 m/S 644 mmHg 79%
    17:00 +24°C° 1.2 mm 1 m/S 644 mmHg 84%
    18:00 +22°C° 1.2 mm 1 m/S 644 mmHg 89%
    19:00 +20°C° 1.2 mm 1 m/S 644 mmHg 94%
    20:00 +20°C° 0.2 mm 1 m/S 644 mmHg 95%
    21:00 +19°C° 0.2 mm 1 m/S 644 mmHg 96%
    22:00 +19°C° 0.2 mm 1 m/S 644 mmHg 96%
    23:00 +19°C° 0.2 mm 1 m/S 644 mmHg 96%

    8 Juni, Montag

    Zeit Temperatur Niederschläge Wind Luftdruck Luftfeuchtigkeit
    00:00 +19°C° 0.2 mm 1 m/S 644 mmHg 97%
    01:00 +18°C° 0.2 mm 1 m/S 644 mmHg 97%
    02:00 +18°C° 0.1 mm 1 m/S 644 mmHg 97%
    03:00 +18°C° 0.1 mm 1 m/S 643 mmHg 97%
    04:00 +18°C° 0.1 mm 1 m/S 643 mmHg 97%
    05:00 +18°C° 0.1 mm 1 m/S 644 mmHg 96%
    06:00 +18°C° 0.1 mm 1 m/S 644 mmHg 96%
    07:00 +17°C° 0.1 mm 0 m/S 645 mmHg 96%
    08:00 +19°C° 0.7 mm 1 m/S 645 mmHg 96%
    09:00 +19°C° 0.7 mm 1 m/S 645 mmHg 96%
    10:00 +18°C° 0.7 mm 2 m/S 645 mmHg 95%
    11:00 +21°C° 0.3 mm 1 m/S 645 mmHg 86%
    12:00 +23°C° 0.3 mm 1 m/S 645 mmHg 77%
    13:00 +25°C° 0.3 mm 1 m/S 645 mmHg 69%
    14:00 +25°C° 0.2 mm 1 m/S 645 mmHg 70%
    15:00 +25°C° 0.2 mm 1 m/S 644 mmHg 71%
    16:00 +25°C° 0.2 mm 1 m/S 644 mmHg 72%
    17:00 +23°C° 0.9 mm 1 m/S 644 mmHg 80%
    18:00 +21°C° 0.9 mm 1 m/S 644 mmHg 88%
    19:00 +20°C° 0.9 mm 1 m/S 643 mmHg 96%
    20:00 +19°C° 0.5 mm 1 m/S 644 mmHg 96%
    21:00 +19°C° 0.5 mm 1 m/S 644 mmHg 96%
    22:00 +19°C° 0.5 mm 1 m/S 644 mmHg 96%
    23:00 +19°C° 0 mm 1 m/S 644 mmHg 97%

    9 Juni, Dienstag

    Zeit Temperatur Niederschläge Wind Luftdruck Luftfeuchtigkeit
    00:00 +18°C° 0 mm 1 m/S 644 mmHg 97%
    01:00 +18°C° 0 mm 1 m/S 643 mmHg 97%
    02:00 +18°C° 0 mm 1 m/S 643 mmHg 97%
    03:00 +18°C° 0 mm 1 m/S 643 mmHg 97%
    04:00 +18°C° 0 mm 1 m/S 643 mmHg 97%
    05:00 +18°C° 0 mm 1 m/S 644 mmHg 96%
    06:00 +18°C° 0 mm 1 m/S 644 mmHg 96%
    07:00 +19°C° 0 mm 1 m/S 644 mmHg 96%
    08:00 +18°C° 0.2 mm 0 m/S 645 mmHg 91%
    09:00 +20°C° 0.2 mm 0 m/S 646 mmHg 87%
    10:00 +22°C° 0.2 mm 0 m/S 647 mmHg 82%
    11:00 +23°C° 0.6 mm 0 m/S 646 mmHg 79%
    12:00 +24°C° 0.6 mm 0 m/S 646 mmHg 75%
    13:00 +24°C° 0.6 mm 0 m/S 645 mmHg 72%
    14:00 +24°C° 0.3 mm 0 m/S 645 mmHg 73%
    15:00 +24°C° 0.3 mm 0 m/S 645 mmHg 73%
    16:00 +25°C° 0.3 mm 1 m/S 644 mmHg 74%
    17:00 +23°C° 0.3 mm 1 m/S 644 mmHg 82%
    18:00 +22°C° 0.3 mm 1 m/S 644 mmHg 89%
    19:00 +20°C° 0.3 mm 1 m/S 643 mmHg 96%
    20:00 +20°C° 0.2 mm 1 m/S 644 mmHg 96%
    21:00 +19°C° 0.2 mm 1 m/S 644 mmHg 97%
    22:00 +19°C° 0.2 mm 1 m/S 644 mmHg 97%
    23:00 +19°C° 0 mm 1 m/S 644 mmHg 97%

    10 Juni, Mittwoch

    Zeit Temperatur Niederschläge Wind Luftdruck Luftfeuchtigkeit
    00:00 +19°C° 0 mm 1 m/S 644 mmHg 97%
    01:00 +18°C° 0 mm 1 m/S 644 mmHg 97%
    02:00 +18°C° 0 mm 1 m/S 644 mmHg 97%
    03:00 +18°C° 0 mm 1 m/S 644 mmHg 97%
    04:00 +18°C° 0 mm 1 m/S 644 mmHg 96%
    05:00 +18°C° 0 mm 1 m/S 644 mmHg 96%
    06:00 +16°C° 0 mm 0 m/S 644 mmHg 96%
    07:00 +17°C° 0 mm 0 m/S 644 mmHg 95%
    08:00 +18°C° 0.3 mm 0 m/S 645 mmHg 92%
    09:00 +20°C° 0.3 mm 0 m/S 646 mmHg 89%
    10:00 +21°C° 0.3 mm 0 m/S 647 mmHg 85%
    11:00 +24°C° 0.8 mm 1 m/S 646 mmHg 83%
    12:00 +24°C° 0.8 mm 1 m/S 646 mmHg 80%
    13:00 +25°C° 0.8 mm 1 m/S 646 mmHg 78%
    14:00 +25°C° 1 mm 1 m/S 645 mmHg 79%
    15:00 +24°C° 1 mm 1 m/S 645 mmHg 80%
    16:00 +24°C° 1 mm 1 m/S 644 mmHg 82%
    17:00 +23°C° 1.4 mm 1 m/S 644 mmHg 85%
    18:00 +21°C° 1.4 mm 1 m/S 644 mmHg 89%
    19:00 +20°C° 1.4 mm 1 m/S 644 mmHg 93%
    20:00 +19°C° 0.2 mm 1 m/S 644 mmHg 94%
    21:00 +19°C° 0.2 mm 1 m/S 644 mmHg 95%
    22:00 +16°C° 0.2 mm 0 m/S 644 mmHg 96%
    23:00 +18°C° 0.1 mm 1 m/S 644 mmHg 96%
    Mehr zeigen